WA8SIE Weather Reports


time (UTC)temp
C
wind
direction
speed
KPH
gust
KPH
rain 1hr
cm
rain 24hr
cm
rain mn
cm
humidity
%
barometer
mb
20260902204012 33 184 0.0 0.0 0.00 0.00 0.00 55 1011.9
20260902203011 33 304 0.0 0.0 0.00 0.00 0.00 55 1011.9
20260902202511 33 303 0.0 0.0 0.00 0.00 0.00 51 1011.9
20260902201011 33 195 0.0 8.0 0.00 0.00 0.00 48 1012.0
20260902200511 33 205 0.0 8.0 0.00 0.00 0.00 49 1012.0
20260902200011 33 129 0.0 8.0 0.00 0.00 0.00 48 1012.0
20260902195511 33 191 0.0 8.0 0.00 0.00 0.00 51 1012.3
20260902195013 33 188 0.0 9.7 0.00 0.00 0.00 48 1012.3
20260902194511 34 200 0.0 9.7 0.00 0.00 0.00 48 1012.3
20260902194013 34 332 0.0 3.2 0.00 0.00 0.00 49 1012.3
20260902193511 34 201 0.0 0.0 0.00 0.00 0.00 48 1012.3
20260902193012 34 201 0.0 0.0 0.00 0.00 0.00 49 1012.3
20260902192511 33 200 0.0 0.0 0.00 0.00 0.00 50 1012.4
20260902192011 33 201 0.0 6.4 0.00 0.00 0.00 50 1012.4
20260902191513 33 201 0.0 6.4 0.00 0.00 0.00 49 1012.4
20260902191012 34 190 0.0 1.6 0.00 0.00 0.00 50 1012.4
20260902190511 33 138 0.0 14.5 0.00 0.00 0.00 49 1012.4
20260902185511 33 201 0.0 9.7 0.00 0.00 0.00 50 1012.6
20260902185011 34 217 3.2 0.0 0.00 0.00 0.00 50 1012.6
20260902184511 34 293 0.0 0.0 0.00 0.00 0.00 52 1012.6
20260902184011 33 0.0 0.0 0.00 0.00 0.00 52 1012.8
20260902183511 33 186 0.0 11.3 0.00 0.00 0.00 51 1012.8
20260902183013 33 186 0.0 11.3 0.00 0.00 0.00 49 1012.8
20260902182514 34 227 0.0 6.4 0.00 0.00 0.00 51 1012.8
20260902182010 33 272 0.0 6.4 0.00 0.00 0.00 53 1012.8
20260902181011 33 202 0.0 6.4 0.00 0.00 0.00 52 1013.0
20260902180511 33 214 0.0 8.0 0.00 0.00 0.00 52 1013.0
20260902180011 33 197 0.0 8.0 0.00 0.00 0.00 52 1013.0
20260902174510 32 198 0.0 1.6 0.00 0.00 0.00 54 1013.2
20260902174012 32 198 0.0 1.6 0.00 0.00 0.00 55 1013.4
20260902173511 32 197 0.0 0.0 0.00 0.00 0.00 58 1013.4
20260902172512 33 197 0.0 6.4 0.00 0.00 0.00 55 1013.6
20260902172011 33 330 0.0 6.4 0.00 0.00 0.00 56 1013.6
20260902171511 33 322 0.0 4.8 0.00 0.00 0.00 56 1013.6
20260902171010 32 274 0.0 0.0 0.00 0.00 0.00 58 1013.8
20260902170011 32 204 0.0 8.0 0.00 0.00 0.00 57 1013.8
20260902165510 32 188 0.0 4.8 0.00 0.00 0.00 58 1014.1
20260902165011 32 207 0.0 14.5 0.00 0.00 0.00 58 1014.1
20260902164012 32 177 8.0 11.3 0.00 0.00 0.00 59 1014.4
20260902163512 32 214 0.0 0.0 0.00 0.00 0.00 58 1014.4
20260902163010 32 214 0.0 4.8 0.00 0.00 0.00 60 1014.4
20260902162511 32 214 0.0 4.8 0.00 0.00 0.00 58 1014.5
20260902162010 32 195 0.0 0.0 0.00 0.00 0.00 60 1014.5
20260902161511 32 195 0.0 0.0 0.00 0.00 0.00 61 1014.5
20260902161012 32 215 0.0 0.0 0.00 0.00 0.00 63 1014.6
20260902160510 32 215 0.0 0.0 0.00 0.00 0.00 61 1014.6
20260902160011 32 215 0.0 3.2 0.00 0.00 0.00 65 1014.6
20260902155511 32 304 0.0 9.7 0.00 0.00 0.00 63 1014.6
20260902155012 32 268 0.0 9.7 0.00 0.00 0.00 61 1014.6
20260902154511 32 271 0.0 0.0 0.00 0.00 0.00 63 1014.6
20260902154011 31 255 0.0 0.0 0.00 0.00 0.00 63 1014.7
20260902153510 31 225 0.0 0.0 0.00 0.00 0.00 64 1014.7
20260902153011 31 223 0.0 0.0 0.00 0.00 0.00 65 1014.7
20260902152510 31 214 0.0 0.0 0.00 0.00 0.00 66 1014.7
20260902152011 31 148 0.0 0.0 0.00 0.00 0.00 66 1014.7
20260902151511 30 163 0.0 0.0 0.00 0.00 0.00 66 1014.7
20260902151011 30 179 0.0 0.0 0.00 0.00 0.00 67 1014.5
20260902150510 30 141 0.0 0.0 0.00 0.00 0.00 68 1014.5
20260902150010 30 181 0.0 0.0 0.00 0.00 0.00 70 1014.5
20260902145512 29 223 0.0 0.0 0.00 0.00 0.00 70 1014.5
20260902144510 29 276 0.0 0.0 0.00 0.00 0.00 72 1014.5
20260902143510 28 205 0.0 0.0 0.00 0.00 0.00 71 1014.6
20260902143010 28 204 0.0 0.0 0.00 0.00 0.00 74 1014.6
20260902141512 28 203 0.0 0.0 0.00 0.00 0.00 77 1014.6
20260902141011 27 203 0.0 0.0 0.00 0.00 0.00 79 1014.4
20260902140511 27 203 0.0 0.0 0.00 0.00 0.00 79 1014.4
20260902140010 27 204 0.0 0.0 0.00 0.00 0.00 82 1014.4
20260902135510 26 110 0.0 0.0 0.00 0.00 0.00 83 1014.4
20260902135010 26 110 0.0 0.0 0.00 0.00 0.00 84 1014.4
20260902134511 26 110 0.0 0.0 0.00 0.00 0.00 83 1014.4
20260902134011 26 111 0.0 0.0 0.00 0.00 0.00 84 1014.5
20260902133511 26 111 0.0 0.0 0.00 0.00 0.00 87 1014.5
20260902133011 25 183 0.0 0.0 0.00 0.00 0.00 88 1014.5
20260902131511 25 181 0.0 0.0 0.00 0.00 0.00 90 1014.5
20260902131011 25 182 0.0 0.0 0.00 0.00 0.00 91 1014.4
20260902130511 25 181 0.0 0.0 0.00 0.00 0.00 93 1014.4
20260902130011 24 181 0.0 0.0 0.00 0.00 0.00 95 1014.4
20260902125511 24 181 0.0 0.0 0.00 0.00 0.00 98 1014.5
20260902125011 23 181 0.0 0.0 0.00 0.00 0.00 99 1014.5
20260902124511 23 181 0.0 0.0 0.00 0.00 0.00 100 1014.5
20260902124011 23 181 0.0 0.0 0.00 0.00 0.00 100 1014.4
20260902123511 23 181 0.0 0.0 0.00 0.00 0.00 100 1014.4
20260902123011 23 182 0.0 0.0 0.00 0.00 0.00 100 1014.4
20260902122511 22 181 0.0 0.0 0.00 0.00 0.00 100 1014.4
20260902122011 22 181 0.0 0.0 0.00 0.00 0.00 100 1014.4
20260902121513 22 181 0.0 0.0 0.00 0.00 0.00 100 1014.4
20260902121011 22 181 0.0 0.0 0.00 0.00 0.00 100 1014.6
20260902120511 22 181 0.0 0.0 0.00 0.00 0.00 100 1014.6
20260902115511 21 181 0.0 0.0 0.00 0.00 0.00 100 1014.4
20260902115011 21 181 0.0 0.0 0.00 0.00 0.00 100 1014.4
20260902114511 21 181 0.0 0.0 0.00 0.00 0.00 100 1014.4
20260902114011 21 181 0.0 0.0 0.00 0.00 0.00 100 1014.3
20260902113511 21 181 0.0 4.8 0.00 0.00 0.00 100 1014.3
20260902113011 21 182 0.0 4.8 0.00 0.00 0.00 100 1014.3
20260902112511 21 182 0.0 0.0 0.00 0.00 0.00 100 1014.1
20260902111511 21 181 0.0 3.2 0.00 0.00 0.00 100 1014.1
20260902111011 21 181 0.0 0.0 0.00 0.00 0.00 100 1014.1
20260902110511 21 181 0.0 0.0 0.00 0.00 0.00 100 1014.1
20260902110012 21 182 0.0 0.0 0.00 0.00 0.00 100 1014.1
20260902105512 21 181 0.0 0.0 0.00 0.00 0.00 100 1014.1
20260902105012 21 181 0.0 0.0 0.00 0.00 0.00 100 1014.1
20260902104511 21 181 0.0 0.0 0.00 0.00 0.00 100 1014.1
20260902103511 21 181 0.0 0.0 0.00 0.00 0.00 100 1014.0
20260902103011 21 181 0.0 0.0 0.00 0.00 0.00 100 1014.0
20260902102511 21 181 0.0 0.0 0.00 0.00 0.00 100 1013.8
20260902102011 21 181 0.0 0.0 0.00 0.00 0.00 100 1013.8
20260902101511 21 181 0.0 0.0 0.00 0.00 0.00 100 1013.8
20260902101013 21 181 0.0 0.0 0.00 0.00 0.00 100 1013.9
20260902100011 21 182 0.0 3.2 0.00 0.00 0.00 100 1013.9
20260902095511 21 181 0.0 3.2 0.00 0.00 0.00 100 1013.9
20260902095010 21 182 0.0 3.2 0.00 0.00 0.00 100 1013.9
20260902094011 21 181 1.6 3.2 0.00 0.00 0.00 100 1013.7
20260902092011 21 182 0.0 0.0 0.00 0.00 0.00 100 1013.5
20260902091511 21 181 0.0 0.0 0.00 0.00 0.00 100 1013.5
20260902090510 22 181 0.0 0.0 0.00 0.00 0.00 100 1013.5
20260902090011 22 181 0.0 0.0 0.00 0.00 0.00 100 1013.5
20260902085512 22 181 0.0 0.0 0.00 0.00 0.00 100 1013.4
20260902084511 22 181 0.0 0.0 0.00 0.00 0.00 100 1013.4
20260902084011 22 181 0.0 1.6 0.00 0.00 0.00 100 1013.2
20260902083011 22 181 0.0 0.0 0.00 0.00 0.00 100 1013.2
20260902082013 22 181 0.0 0.0 0.00 0.00 0.00 100 1013.1
20260902081510 22 181 0.0 0.0 0.00 0.00 0.00 100 1013.1
20260902081011 22 181 0.0 0.0 0.00 0.00 0.00 100 1013.1
20260902080511 22 181 0.0 0.0 0.00 0.00 0.00 100 1013.1
20260902080010 22 181 0.0 1.6 0.00 0.00 0.00 100 1013.1
20260902075510 22 181 0.0 3.2 0.00 0.00 0.00 100 1013.0
20260902075011 22 181 1.6 3.2 0.00 0.00 0.00 100 1013.0
20260902074511 22 181 0.0 0.0 0.00 0.00 0.00 100 1013.0
20260902073511 22 181 0.0 0.0 0.00 0.00 0.00 100 1013.2
20260902073011 22 181 0.0 0.0 0.00 0.00 0.00 100 1013.2
20260902072510 22 181 0.0 0.0 0.00 0.00 0.00 100 1013.2
20260902072010 22 181 0.0 0.0 0.00 0.00 0.00 100 1013.2
20260902071510 22 181 0.0 0.0 0.00 0.00 0.00 100 1013.2
20260902071010 22 181 0.0 0.0 0.00 0.00 0.00 100 1013.1
20260902070510 22 181 0.0 0.0 0.00 0.00 0.00 100 1013.1
20260902070010 22 181 0.0 0.0 0.00 0.00 0.00 100 1013.1
20260902065512 22 181 0.0 0.0 0.00 0.00 0.00 100 1013.0
20260902065010 22 181 0.0 0.0 0.00 0.00 0.00 100 1013.0
20260902064510 22 181 0.0 0.0 0.00 0.00 0.00 100 1013.0
20260902064011 23 181 0.0 0.0 0.00 0.00 0.00 100 1013.1
20260902063511 23 181 0.0 0.0 0.00 0.00 0.00 100 1013.1
20260902063010 23 181 0.0 0.0 0.00 0.00 0.00 100 1013.1
20260902062511 23 181 0.0 0.0 0.00 0.00 0.00 100 1013.2
20260902062010 23 181 0.0 0.0 0.00 0.00 0.00 100 1013.2
20260902061511 23 181 0.0 0.0 0.00 0.00 0.00 100 1013.2
20260902061010 23 181 0.0 0.0 0.00 0.00 0.00 100 1013.1
20260902060510 23 181 0.0 0.0 0.00 0.00 0.00 100 1013.1
20260902060011 23 181 0.0 0.0 0.00 0.00 0.00 100 1013.1
20260902055510 23 181 0.0 0.0 0.00 0.00 0.00 100 1012.9
20260902055010 23 181 0.0 0.0 0.00 0.00 0.00 100 1012.9
20260902054510 23 181 0.0 0.0 0.00 0.00 0.00 100 1012.9
20260902054010 23 181 0.0 0.0 0.00 0.00 0.00 100 1012.9
20260902053510 23 181 0.0 0.0 0.00 0.00 0.00 100 1012.9
20260902053011 23 181 0.0 0.0 0.00 0.00 0.00 100 1012.9
20260902051511 23 182 0.0 0.0 0.00 0.00 0.00 100 1012.8
20260902051011 23 181 0.0 3.2 0.00 0.00 0.00 100 1012.7
20260902050511 23 181 0.0 3.2 0.00 0.00 0.00 100 1012.7
20260902050012 23 181 0.0 0.0 0.00 0.00 0.00 100 1012.7
20260902045511 23 181 0.0 0.0 0.00 0.00 0.00 100 1012.6
20260902045011 23 181 0.0 0.0 0.00 0.00 0.00 100 1012.6
20260902044513 23 181 0.0 0.0 0.00 0.00 0.00 100 1012.6
20260902044011 23 181 0.0 0.0 0.00 0.00 0.00 100 1012.7
20260902043511 23 181 0.0 0.0 0.00 0.00 0.00 100 1012.7
20260902043013 23 181 0.0 3.2 0.00 0.00 0.00 100 1012.7
20260902042511 23 182 0.0 3.2 0.00 0.00 0.00 99 1012.6
20260902042013 23 181 0.0 0.0 0.00 0.00 0.00 99 1012.6
20260902041513 23 181 0.0 1.6 0.00 0.00 0.00 99 1012.6
20260902040513 24 181 0.0 0.0 0.00 0.00 0.00 99 1012.8
20260902035511 24 182 0.0 0.0 0.00 0.00 0.00 98 1012.6
20260902035011 24 181 0.0 0.0 0.00 0.00 0.00 98 1012.6
20260902034513 24 181 0.0 0.0 0.00 0.00 0.00 98 1012.6
20260902034012 24 181 0.0 0.0 0.00 0.00 0.00 97 1012.5
20260902033511 24 181 0.0 0.0 0.00 0.00 0.00 97 1012.5
20260902033011 24 181 0.0 0.0 0.00 0.00 0.00 97 1012.5
20260902032511 24 181 0.0 0.0 0.00 0.00 0.00 97 1012.5
20260902032011 24 181 0.0 0.0 0.00 0.00 0.00 97 1012.5
20260902031511 24 181 0.0 0.0 0.00 0.00 0.00 97 1012.5
20260902031011 25 182 0.0 0.0 0.00 0.00 0.00 96 1012.6
20260902030011 25 181 0.0 0.0 0.00 0.00 0.00 96 1012.6
20260902025511 25 181 0.0 0.0 0.00 0.00 0.00 95 1012.6
20260902024013 25 181 0.0 0.0 0.00 0.00 0.00 95 1012.7
20260902023011 25 181 0.0 1.6 0.00 0.00 0.00 95 1012.7
20260902022511 25 181 0.0 3.2 0.00 0.00 0.00 94 1012.5
20260902022013 25 181 0.0 3.2 0.00 0.00 0.00 94 1012.5
20260902021511 25 181 0.0 1.6 0.00 0.00 0.00 94 1012.5
20260902021011 25 181 0.0 1.6 0.00 0.00 0.00 93 1012.5
20260902020511 25 181 0.0 0.0 0.00 0.00 0.00 93 1012.5
20260902020011 25 183 0.0 0.0 0.00 0.00 0.00 93 1012.5
20260902015511 25 184 0.0 0.0 0.00 0.00 0.00 93 1012.4
20260902015011 25 184 0.0 0.0 0.00 0.00 0.00 93 1012.4
20260902014510 26 185 0.0 0.0 0.00 0.00 0.00 92 1012.4
20260902014011 26 184 0.0 0.0 0.00 0.00 0.00 92 1012.4
20260902013511 26 184 0.0 0.0 0.00 0.00 0.00 92 1012.4
20260902013011 26 184 0.0 0.0 0.00 0.00 0.00 91 1012.4
20260902012511 26 184 0.0 0.0 0.00 0.00 0.00 91 1012.3
20260902012014 -17 0.0 0.0 0.79 0.00 0.00
20260902011512 -17 0.0 0.0 0.79 0.00 0.00
20260902011012 -17 0.0 0.0 0.79 0.00 0.00
20260902010511 -17 0.0 0.0 0.79 0.00 0.00
20260902005010 -17 0.0 0.0 0.79 0.00 0.00
20260902004511 -17 0.0 0.0 0.79 0.00 0.00
20260902004011 -17 0.0 0.0 0.79 0.00 0.00
20260902002510 -17 0.0 0.0 0.79 0.00 0.00
20260902002010 -17 0.0 0.0 0.79 0.00 0.00
20260902001511 -17 0.0 0.0 0.79 0.00 0.00
20260902001011 -17 0.0 0.0 0.79 0.00 0.00
20260902000010 -17 0.0 0.0 0.79 0.00 0.00
20260901235512 -17 0.0 0.0 0.79 0.00 0.00
20260901235010 -17 0.0 0.0 0.79 0.00 0.00
20260901234510 -17 0.0 0.0 0.79 0.00 0.00
20260901234011 -17 0.0 0.0 0.79 0.00 0.00
20260901233510 -17 0.0 0.0 0.79 0.00 0.00
20260901231510 -17 0.0 0.0 0.79 0.00 0.00
20260901230510 -17 0.0 0.0 0.79 0.00 0.00
20260901230010 -17 0.0 0.0 0.79 0.00 0.00
20260901225511 30 184 0.0 4.8 0.00 0.00 0.00 68 1011.6
20260901225011 31 185 0.0 0.0 0.00 0.00 0.00 68 1011.6
20260901224011 31 184 0.0 8.0 0.00 0.00 0.00 64 1011.6
20260901223511 31 184 0.0 9.7 0.00 0.00 0.00 62 1011.6
20260901222011 31 203 0.0 9.7 0.00 0.00 0.00 61 1011.8
20260901221511 31 203 0.0 9.7 0.00 0.00 0.00 61 1011.8
20260901221011 32 197 0.0 6.4 0.00 0.00 0.00 60 1011.8
20260901220511 32 204 0.0 6.4 0.00 0.00 0.00 61 1011.8
20260901220011 32 200 0.0 11.3 0.00 0.00 0.00 58 1011.8
20260901215511 32 200 3.2 11.3 0.00 0.00 0.00 58 1011.9
20260901214511 32 172 0.0 16.1 0.00 0.00 0.00 57 1011.9
20260901214013 32 195 0.0 11.3 0.00 0.00 0.00 58 1012.1
20260901213513 32 195 0.0 11.3 0.00 0.00 0.00 56 1012.1
20260901213011 32 198 0.0 4.8 0.00 0.00 0.00 55 1012.1
20260901212511 32 198 0.0 6.4 0.00 0.00 0.00 56 1012.4
20260901212012 32 198 0.0 6.4 0.00 0.00 0.00 54 1012.4
20260901211511 32 200 0.0 8.0 0.00 0.00 0.00 55 1012.4
20260901211011 32 200 0.0 9.7 0.00 0.00 0.00 56 1012.4
20260901210512 32 179 0.0 9.7 0.00 0.00 0.00 54 1012.4
20260901210013 32 190 0.0 6.4 0.00 0.00 0.00 56 1012.4
20260901205511 32 201 0.0 6.4 0.00 0.00 0.00 55 1012.3
20260901205011 32 201 0.0 6.4 0.00 0.00 0.00 54 1012.3